Temp
3 3 3 3 3 3 4 4 4 4 4 4 4 4 4 5 5 5 7 7 9 9 7 9 11 13 13 12 7 11 10 11 10 10 8 8 8 12 13 14 11 10 8 7 8 8 8 14 13 13 11 13 13 11
2 2 2 3 3 3 4 4 4 4 4 4 4 4 4 5 5 5 4 6 9 10 6 6 8 10 11 11 11 11 11 11 13 9 9 8 7 9 11 10 13 11 10 9 9 8 13 14 13 12 12 12 11 11
2 2 2 3 3 3 3 4 3 4 4 4 4 4 4 4 4 4 5 6 9 7 5 7 7 9 10 11 11 12 12 12 12 12 11 7 7 9 7 10 13 14 14 10 10 13 14 13 12 12 12 11 10 10
2 2 2 3 3 3 3 4 4 4 4 4 4 4 4 4 4 4 4 7 9 9 2 4 7 8 9 10 11 13 13 13 13 13 7 3 4 10 8 10 9 11 12 11 10 13 13 11 11 11 10 10 9 8
1 2 2 3 3 3 3 3 4 4 4 4 4 3 3 4 4 3 4 6 9 12 2 5 6 7 8 9 10 11 13 13 12 10 3 3 8 7 8 6 8 13 10 7 5 11 10 9 10 10 9 9 8 7
0 0 1 1 2 2 3 3 3 3 3 3 3 3 4 3 3 2 6 7 9 12 8 2 5 6 7 9 9 10 10 11 9 8 8 8 8 8 3 4 11 13 11 12 10 10 10 9 8 8 8 7 6 6
-1 -1 -1 -1 -0 1 2 2 2 2 3 3 2 3 2 2 2 4 8 9 9 12 8 3 3 6 6 7 8 8 9 8 9 7 8 8 8 8 2 4 12 11 10 9 9 8 7 7 7 7 7 6 5 5
-1 -1 -1 -1 -1 0 1 1 1 2 1 2 3 2 2 3 3 5 7 9 11 12 7 1 2 5 6 6 6 7 6 7 6 6 7 7 7 7 3 7 10 9 8 8 7 7 6 6 6 6 5 5 4 3
-1 -1 -1 -1 -1 -0 -0 -0 0 1 2 1 1 2 2 3 4 5 6 6 10 11 5 4 2 2 5 5 5 6 6 2 5 5 6 7 2 2 5 7 7 7 7 6 6 5 5 5 5 4 4 3 3 2
-2 -1 -1 -1 -1 -1 -1 -0 0 0 1 1 1 2 1 2 4 5 5 8 8 6 7 4 5 1 5 4 4 4 6 1 2 3 7 1 4 8 6 6 5 5 6 5 5 4 4 4 4 3 3 2 2 1
-2 -2 -1 -1 -1 -1 -1 0 1 2 1 1 0 -1 0 1 3 1 0 1 3 3 6 6 5 4 6 3 2 5 1 3 3 4 3 2 3 4 5 5 5 5 5 4 4 4 3 3 3 3 2 2 1 0
-2 -2 -1 -1 -1 -1 -0 -0 -0 0 0 0 0 -1 -0 0 1 2 1 3 4 3 5 4 4 5 5 5 4 5 3 2 4 5 1 2 2 4 4 4 4 3 2 2 2 2 2 2 2 2 1 1 0 -1
-2 -2 -2 -2 -1 -1 -1 -0 1 0 -0 0 1 0 2 2 1 3 3 3 1 4 5 4 2 5 5 4 4 2 2 1 5 1 2 2 4 3 3 3 2 1 -1 -1 0 1 1 2 2 1 1 0 -1 -1
-2 -2 -1 -2 -1 -1 -1 -1 0 1 1 1 2 2 2 2 2 3 3 2 4 4 3 3 3 3 4 3 3 3 3 3 1 -0 4 2 2 1 1 0 -0 -1 -1 0 0 1 1 1 1 1 -0 -1 -1 -2
-1 -1 -1 -1 -1 -1 -1 0 1 2 2 3 3 1 1 1 3 4 4 3 3 3 4 4 4 4 2 2 2 3 3 3 2 2 1 0 0 -1 -1 -2 -2 -1 -0 0 0 0 1 1 0 -0 -1 -1 -2 -2
0 0 0 -1 -0 0 2 2 2 2 3 3 1 1 1 2 2 3 3 3 4 5 5 5 3 2 2 2 3 3 3 3 1 -0 -0 -1 -1 -1 -1 -2 -0 0 -0 -0 -0 -0 0 0 -0 -1 -1 -2 -2 -3
2 2 2 2 3 3 4 4 3 3 1 1 1 1 1 0 1 2 3 4 5 4 2 4 4 5 4 3 4 1 2 -0 -1 -0 -0 -0 -1 -2 -2 -2 -2 -2 -2 -2 -1 -1 -1 -1 -1 -2 -2 -2 -3 -3
2 2 3 4 4 3 2 2 2 2 -0 0 0 1 1 1 1 2 3 4 5 4 4 3 6 4 2 4 1 -0 -0 0 0 -0 -1 -1 -2 -2 -2 -2 -2 -2 -1 -2 -3 -2 -3 -3 -3 -3 -3 -3 -3 -3
2 3 4 4 5 4 2 2 2 -0 -0 0 1 1 1 1 2 2 2 3 3 4 4 4 2 1 1 1 -0 0 0 -0 -1 -1 -0 -0 -0 -1 -1 -1 -2 -2 -2 -3 -3 -3 -3 -4 -3 -4 -4 -4 -3 -3
3 3 4 5 5 2 0 1 2 2 1 1 1 1 1 1 2 2 2 2 2 2 2 -0 -0 1 1 2 1 0 0 0 0 -0 -0 -0 0 -0 -0 -0 -0 -1 -2 -3 -3 -3 -4 -4 -4 -4 -4 -4 -4 -3
3 3 4 5 2 -0 -0 -0 1 2 1 1 1 1 1 1 1 1 1 1 2 2 2 0 1 1 1 1 1 1 0 -0 -1 -0 -1 -1 -1 -1 -1 -1 -1 -1 -1 -1 -1 -2 -4 -3 -4 -4 -4 -4 -4 -4
1 2 3 1 -1 -1 -0 -0 0 1 1 1 1 1 1 1 1 1 1 1 1 1 1 1 0 0 0 0 -0 -0 -0 -1 -1 -1 -1 -2 -1 -1 -1 -1 -1 -1 -1 -1 -1 -1 -1 -2 -3 -4 -4 -4 -4 -4
2 2 -1 -2 -2 -2 -1 -0 -0 -0 -1 1 1 1 1 1 0 0 0 0 -1 -0 -0 -0 -1 -1 -1 -1 -1 -1 -1 -1 -1 -1 -1 -1 -2 -2 -2 -2 -2 -2 -1 -1 -1 -1 -1 -2 -2 -3 -3 -4 -4 -4
1 -2 -4 -4 -4 -5 -2 -0 -0 -0 0 0 -2 -1 -0 -0 -0 0 -1 -1 -1 -1 -1 -2 -1 -1 -1 -1 -2 -2 -2 -2 -2 -2 -2 -2 -2 -3 -3 -3 -3 -2 -2 -2 -2 -2 -2 -2 -3 -3 -3 -4 -4 -4
-1 -5 -4 -5 -3 -3 -6 -5 -2 -3 -3 -3 -3 -4 -2 -1 -4 -4 -2 -1 -1 -2 -2 -2 -2 -2 -2 -3 -3 -3 -3 -3 -3 -3 -3 -4 -4 -4 -3 -3 -3 -3 -3 -2 -2 -2 -2 -2 -2 -3 -3 -4 -4 -4
-9 -5 -5 -4 -3 -4 -3 -6 -6 -5 -4 -4 -2 -2 -1 -2 -5 -4 -1 -2 -2 -2 -3 -3 -3 -3 -4 -4 -4 -4 -4 -4 -4 -4 -4 -4 -4 -4 -4 -4 -4 -3 -3 -3 -2 -3 -3 -3 -3 -4 -4 -3 -4 -4
-9 -7 -4 -2 -2 -2 -3 -2 -2 -3 -6 -6 -3 -4 -6 -7 -6 -2 -3 -2 -3 -3 -3 -3 -4 -4 -4 -4 -4 -4 -4 -4 -4 -4 -4 -4 -4 -4 -4 -5 -5 -5 -4 -4 -4 -4 -4 -4 -4 -4 -3 -3 -3 -4
-5 -4 -8 -3 -3 -3 -5 -3 -6 -6 -3 -2 -2 -7 -7 -6 -4 -2 -3 -3 -3 -3 -4 -4 -4 -5 -5 -4 -4 -4 -4 -4 -4 -4 -4 -4 -4 -5 -4 -4 -4 -4 -4 -4 -4 -4 -4 -4 -4 -4 -4 -3 -3 -3
-5 -5 -5 -6 -4 -4 -4 -3 -3 -2 -2 -2 -4 -5 -3 -4 -4 -4 -4 -4 -4 -4 -5 -5 -5 -5 -5 -5 -5 -5 -5 -5 -5 -4 -4 -4 -5 -5 -4 -4 -4 -3 -3 -4 -4 -4 -4 -4 -4 -4 -4 -4 -4 -4
-6 -5 -6 -6 -7 -6 -6 -5 -5 -5 -4 -4 -4 -4 -4 -5 -5 -5 -5 -5 -5 -5 -5 -5 -6 -6 -6 -6 -6 -6 -6 -6 -5 -5 -5 -5 -5 -4 -4 -4 -4 -4 -4 -4 -4 -4 -4 -5 -4 -5 -5 -4 -4 -5
-5 -6 -5 -5 -6 -7 -7 -6 -6 -5 -5 -5 -4 -4 -5 -6 -5 -6 -6 -6 -6 -6 -6 -6 -6 -6 -7 -7 -8 -8 -8 -7 -7 -6 -6 -6 -5 -5 -5 -5 -5 -4 -4 -5 -5 -6 -6 -6 -6 -7 -6 -5 -5 -5
-6 -6 -6 -8 -8 -8 -7 -6 -6 -6 -6 -6 -6 -6 -6 -6 -6 -6 -6 -7 -7 -7 -7 -7 -8 -8 -7 -7 -7 -7 -7 -7 -8 -8 -7 -6 -6 -6 -5 -5 -5 -5 -5 -5 -5 -5 -5 -6 -7 -7 -7 -7 -6 -6
-6 -6 -6 -7 -7 -7 -8 -7 -6 -7 -7 -7 -7 -7 -7 -7 -6 -7 -7 -7 -7 -7 -7 -7 -7 -7 -7 -7 -7 -7 -7 -7 -7 -7 -7 -6 -6 -6 -6 -6 -6 -6 -5 -5 -5 -5 -5 -5 -5 -5 -6 -6 -6 -6
Height
1338 1339 1344 1351 1360 1369 1380 1388 1397 1404 1411 1417 1424 1430 1434 1441 1447 1451 1455 1459 1466 1463 1469 1470 1469 1472 1475 1480 1493 1499 1506 1509 1510 1517 1525 1530 1536 1528 1531 1531 1540 1544 1562 1569 1566 1570 1571 1542 1544 1549 1552 1550 1550 1550
1334 1336 1340 1345 1353 1362 1373 1382 1390 1398 1405 1412 1419 1425 1431 1438 1443 1448 1455 1461 1460 1463 1473 1473 1473 1475 1477 1482 1489 1496 1499 1500 1502 1509 1516 1521 1532 1530 1530 1542 1524 1545 1541 1552 1553 1555 1541 1541 1542 1545 1547 1549 1550 1550
1330 1334 1338 1343 1350 1358 1367 1376 1384 1392 1398 1405 1414 1421 1428 1434 1441 1447 1454 1459 1461 1465 1473 1475 1475 1478 1480 1483 1488 1492 1496 1498 1499 1502 1507 1518 1528 1525 1536 1530 1528 1529 1531 1540 1543 1542 1540 1540 1542 1544 1546 1547 1549 1550
1326 1330 1335 1341 1347 1355 1362 1370 1378 1386 1392 1399 1408 1416 1424 1430 1437 1444 1452 1458 1459 1460 1472 1484 1480 1483 1486 1490 1491 1492 1491 1493 1496 1502 1509 1521 1528 1521 1526 1526 1530 1531 1531 1536 1539 1539 1541 1542 1542 1543 1545 1547 1549 1550
1322 1326 1331 1336 1342 1349 1356 1364 1372 1379 1386 1393 1402 1409 1417 1427 1436 1443 1452 1455 1453 1457 1470 1484 1486 1488 1489 1491 1491 1492 1492 1494 1499 1506 1515 1522 1519 1524 1526 1527 1531 1528 1531 1539 1545 1539 1540 1543 1543 1544 1544 1546 1548 1550
1321 1324 1327 1332 1338 1344 1351 1358 1365 1373 1381 1389 1397 1404 1413 1424 1433 1446 1448 1449 1449 1450 1459 1485 1491 1491 1491 1490 1489 1494 1497 1499 1504 1508 1511 1520 1522 1524 1533 1538 1526 1527 1528 1530 1534 1537 1538 1541 1542 1544 1544 1546 1548 1550
1319 1321 1325 1330 1335 1340 1345 1352 1360 1367 1375 1382 1389 1398 1409 1422 1430 1436 1439 1440 1444 1448 1457 1484 1493 1496 1496 1496 1496 1498 1495 1497 1507 1513 1519 1521 1522 1523 1531 1537 1525 1525 1527 1530 1533 1537 1540 1541 1542 1543 1545 1545 1546 1548
1319 1319 1323 1328 1332 1336 1340 1347 1354 1362 1371 1379 1386 1396 1412 1421 1429 1435 1437 1440 1441 1446 1455 1479 1493 1495 1493 1498 1499 1500 1505 1505 1513 1517 1520 1522 1526 1527 1533 1525 1525 1526 1529 1531 1533 1535 1538 1540 1542 1542 1544 1543 1545 1548
1320 1320 1323 1329 1332 1335 1340 1346 1352 1362 1370 1380 1390 1400 1411 1420 1427 1432 1438 1443 1441 1448 1460 1473 1486 1496 1496 1499 1500 1505 1509 1516 1519 1520 1522 1524 1528 1532 1524 1526 1526 1527 1529 1532 1534 1536 1538 1541 1542 1543 1544 1545 1545 1548
1323 1324 1327 1331 1335 1339 1344 1352 1358 1364 1375 1386 1395 1405 1414 1420 1428 1434 1438 1443 1447 1452 1460 1470 1476 1487 1491 1496 1506 1510 1511 1518 1524 1523 1521 1525 1527 1525 1525 1526 1527 1528 1530 1531 1533 1536 1539 1541 1543 1543 1544 1545 1546 1548
1329 1330 1334 1338 1343 1347 1351 1357 1363 1371 1379 1387 1395 1406 1416 1420 1427 1435 1442 1446 1455 1459 1461 1469 1473 1479 1491 1497 1503 1508 1513 1516 1523 1523 1523 1528 1529 1529 1526 1526 1526 1527 1528 1529 1533 1536 1538 1540 1541 1543 1543 1544 1546 1549
1338 1338 1341 1345 1349 1353 1357 1363 1368 1375 1382 1387 1395 1410 1417 1428 1433 1438 1444 1448 1449 1458 1462 1469 1477 1482 1491 1497 1504 1512 1515 1517 1518 1518 1525 1529 1530 1526 1525 1526 1527 1527 1528 1529 1532 1534 1536 1538 1541 1542 1543 1543 1545 1548
1348 1349 1351 1353 1358 1363 1368 1370 1375 1380 1384 1392 1402 1413 1420 1424 1429 1430 1438 1444 1451 1452 1460 1466 1476 1482 1491 1496 1505 1510 1515 1521 1516 1524 1526 1528 1527 1526 1526 1527 1527 1528 1529 1530 1531 1533 1536 1537 1539 1540 1540 1542 1543 1544
1357 1359 1361 1365 1368 1369 1373 1377 1384 1387 1392 1398 1405 1415 1419 1423 1426 1424 1428 1435 1442 1451 1460 1466 1472 1480 1490 1497 1501 1506 1512 1513 1522 1531 1521 1527 1527 1528 1528 1529 1529 1529 1529 1530 1532 1534 1536 1537 1538 1539 1540 1541 1543 1543
1368 1369 1371 1374 1378 1382 1388 1393 1396 1398 1401 1406 1411 1424 1428 1429 1429 1428 1429 1438 1450 1455 1461 1468 1476 1483 1491 1496 1499 1506 1512 1516 1516 1518 1524 1527 1528 1529 1530 1529 1528 1528 1529 1531 1533 1535 1536 1537 1538 1539 1539 1540 1542 1544
1377 1379 1381 1383 1385 1389 1392 1397 1398 1401 1408 1415 1423 1428 1434 1432 1437 1442 1448 1453 1458 1461 1465 1470 1477 1486 1493 1496 1499 1503 1506 1508 1517 1522 1526 1527 1527 1526 1526 1526 1525 1527 1529 1531 1534 1535 1536 1537 1537 1538 1539 1539 1541 1543
1382 1383 1386 1389 1389 1391 1393 1394 1398 1408 1418 1426 1435 1435 1438 1442 1448 1454 1458 1461 1463 1466 1468 1471 1477 1484 1488 1493 1495 1506 1509 1514 1516 1519 1521 1524 1525 1526 1526 1527 1527 1531 1534 1535 1534 1535 1535 1535 1536 1538 1537 1539 1540 1542
1385 1390 1391 1392 1393 1394 1395 1398 1408 1423 1433 1439 1441 1445 1447 1450 1455 1458 1460 1462 1464 1466 1469 1474 1477 1483 1490 1490 1503 1510 1511 1515 1519 1521 1523 1525 1526 1526 1527 1528 1530 1533 1534 1535 1536 1536 1536 1536 1536 1534 1537 1538 1539 1540
1394 1395 1396 1396 1396 1397 1407 1418 1424 1437 1446 1450 1453 1455 1457 1459 1463 1465 1467 1468 1469 1470 1472 1478 1483 1492 1497 1501 1504 1510 1514 1518 1521 1523 1524 1526 1528 1528 1529 1529 1530 1532 1533 1534 1535 1536 1536 1535 1535 1535 1536 1537 1537 1539
1397 1397 1398 1399 1400 1404 1421 1432 1435 1443 1453 1459 1460 1462 1465 1467 1470 1472 1473 1473 1473 1474 1480 1489 1496 1500 1501 1504 1507 1511 1514 1519 1521 1523 1526 1528 1530 1530 1531 1531 1532 1532 1532 1534 1534 1534 1534 1534 1535 1536 1535 1535 1536 1536
1401 1401 1402 1401 1403 1415 1430 1438 1443 1452 1457 1463 1466 1466 1471 1473 1476 1477 1479 1479 1480 1487 1493 1499 1500 1503 1506 1509 1512 1514 1517 1520 1522 1525 1527 1528 1529 1531 1531 1531 1531 1532 1532 1532 1532 1532 1532 1532 1533 1534 1533 1533 1534 1535
1404 1406 1406 1408 1416 1428 1440 1446 1449 1453 1458 1464 1466 1468 1475 1479 1480 1480 1482 1485 1494 1498 1500 1502 1505 1508 1511 1513 1515 1516 1518 1521 1523 1525 1526 1527 1529 1530 1530 1531 1530 1529 1530 1531 1530 1530 1530 1530 1530 1530 1531 1531 1532 1533
1410 1410 1413 1420 1426 1439 1451 1450 1452 1456 1459 1465 1469 1472 1477 1481 1486 1489 1494 1498 1501 1503 1505 1506 1509 1511 1513 1514 1515 1517 1520 1522 1523 1524 1525 1526 1526 1527 1526 1527 1527 1527 1527 1527 1527 1527 1526 1526 1526 1526 1526 1528 1529 1530
1417 1421 1428 1434 1441 1451 1454 1456 1458 1460 1463 1468 1475 1480 1485 1490 1494 1495 1497 1500 1504 1505 1507 1510 1511 1512 1514 1516 1517 1518 1520 1521 1521 1523 1523 1523 1523 1523 1523 1522 1522 1522 1522 1522 1522 1523 1523 1522 1522 1522 1522 1523 1524 1526
1430 1442 1444 1449 1453 1456 1461 1463 1463 1468 1473 1478 1484 1487 1491 1493 1496 1497 1497 1502 1504 1507 1509 1511 1511 1513 1513 1515 1516 1517 1519 1520 1521 1522 1522 1521 1522 1521 1521 1520 1519 1517 1516 1516 1517 1518 1519 1519 1519 1519 1519 1519 1520 1521
1445 1449 1452 1454 1457 1459 1463 1470 1472 1474 1476 1481 1484 1489 1492 1494 1499 1500 1496 1501 1503 1506 1509 1511 1513 1513 1515 1516 1517 1518 1519 1520 1521 1521 1522 1522 1521 1519 1518 1517 1516 1516 1515 1514 1514 1514 1514 1514 1515 1516 1516 1516 1516 1516
1453 1455 1454 1454 1455 1457 1463 1467 1470 1475 1481 1485 1486 1490 1493 1502 1502 1497 1499 1501 1503 1507 1509 1511 1512 1513 1514 1516 1517 1518 1519 1519 1520 1521 1521 1520 1519 1518 1517 1516 1515 1515 1514 1513 1513 1513 1512 1512 1512 1512 1513 1513 1513 1513
1455 1457 1458 1459 1460 1463 1466 1472 1476 1481 1480 1482 1487 1493 1497 1496 1496 1497 1499 1502 1504 1507 1509 1511 1512 1513 1514 1516 1517 1518 1519 1519 1519 1519 1519 1518 1518 1517 1516 1515 1514 1513 1513 1512 1511 1511 1510 1510 1510 1509 1509 1509 1509 1509
1460 1462 1464 1467 1469 1471 1474 1477 1478 1480 1481 1483 1486 1488 1490 1493 1495 1497 1501 1503 1505 1506 1508 1510 1512 1513 1514 1515 1516 1517 1517 1517 1517 1517 1516 1516 1516 1516 1515 1514 1513 1512 1511 1510 1509 1508 1508 1507 1507 1506 1506 1505 1505 1504
1466 1468 1470 1473 1474 1476 1479 1479 1480 1482 1482 1484 1487 1490 1493 1496 1499 1500 1501 1503 1504 1506 1507 1509 1510 1511 1512 1512 1512 1512 1513 1512 1512 1513 1513 1513 1513 1513 1513 1512 1511 1510 1509 1508 1507 1506 1505 1505 1504 1504 1503 1503 1502 1501
1467 1469 1471 1473 1477 1480 1481 1482 1483 1485 1486 1488 1490 1492 1494 1497 1499 1500 1501 1502 1503 1504 1505 1506 1507 1507 1507 1507 1507 1507 1507 1507 1506 1507 1508 1509 1510 1510 1510 1510 1509 1508 1507 1506 1505 1504 1504 1503 1502 1502 1501 1500 1500 1500
1469 1470 1472 1475 1481 1482 1483 1485 1486 1487 1489 1490 1492 1493 1495 1496 1497 1499 1499 1499 1500 1501 1502 1503 1503 1504 1504 1504 1503 1503 1504 1504 1504 1505 1506 1507 1508 1508 1508 1507 1507 1506 1506 1505 1504 1503 1503 1502 1502 1501 1500 1500 1499 1498
1472 1473 1474 1476 1480 1482 1484 1485 1486 1489 1490 1491 1492 1493 1494 1495 1496 1496 1497 1497 1499 1500 1501 1501 1501 1501 1501 1501 1502 1502 1502 1502 1503 1504 1505 1505 1506 1506 1506 1506 1505 1505 1505 1504 1504 1503 1502 1502 1501 1500 1500 1499 1498 1497
Wind_Speed
21 24 34 40 40 45 46 41 37 37 35 34 32 28 31 35 34 44 24 6 10 6 8 4 10 9 14 13 5 12 6 2 2 4 4 3 3 4 4 6 7 6 5 3 3 3 5 12 5 2 4 6 9 10
19 19 23 32 37 42 45 41 39 36 34 34 32 28 28 31 37 36 40 15 14 6 11 15 15 14 16 11 12 17 2 7 7 4 2 3 2 2 5 2 5 3 6 5 7 5 6 10 15 13 9 10 7 8
19 21 23 27 31 35 40 40 39 35 35 35 34 32 28 29 32 48 33 16 19 19 13 9 13 12 13 13 20 6 5 5 7 6 5 2 3 3 3 2 3 3 9 4 4 2 4 13 12 8 5 6 7 5
22 24 25 30 32 35 37 37 37 38 36 36 35 31 30 30 34 47 30 23 11 15 7 9 8 10 11 11 9 8 17 14 16 11 8 3 3 1 1 3 4 3 4 5 1 3 6 10 9 13 10 7 7 7
17 24 25 27 31 36 36 37 38 39 37 36 37 29 37 35 50 52 23 23 20 7 8 8 13 13 11 13 15 14 14 16 10 6 4 1 2 4 2 3 1 3 4 4 5 7 8 6 5 6 9 8 7 8
19 19 23 27 30 31 33 35 35 36 36 36 37 36 41 48 49 35 11 21 19 18 13 3 7 10 12 16 20 17 17 15 8 5 7 4 2 2 3 2 5 6 7 5 9 8 9 7 4 3 8 9 8 8
14 21 24 24 25 27 33 36 34 32 32 33 39 36 44 57 44 27 9 22 22 17 10 7 3 6 11 13 14 16 13 13 7 5 3 4 3 4 2 3 5 11 9 10 10 8 9 7 7 6 7 10 12 12
11 16 22 23 22 25 27 30 33 34 33 33 36 51 57 39 24 18 18 26 21 17 11 4 2 3 6 3 4 7 4 8 6 3 3 4 4 3 1 10 8 12 12 11 7 4 6 7 8 9 11 13 14 13
10 19 24 25 24 26 30 33 32 35 34 55 56 42 34 29 16 21 20 17 18 11 9 5 5 4 6 5 6 6 4 3 3 2 2 5 0 2 5 4 13 10 9 11 9 5 3 7 10 10 12 12 13 12
15 23 31 24 26 29 37 35 39 42 59 50 46 21 8 19 38 28 9 7 5 6 5 4 9 3 9 5 4 3 3 2 2 3 5 3 2 2 18 16 13 8 4 4 7 9 7 9 10 10 11 10 8 9
23 31 32 31 37 40 44 47 53 54 54 35 8 7 34 24 16 6 5 5 2 4 5 5 15 11 9 5 3 3 2 1 2 2 4 2 1 11 11 10 6 2 2 2 7 8 9 8 11 12 10 9 8 8
27 32 35 35 40 42 41 42 39 37 21 13 30 26 15 6 4 5 3 5 3 5 7 14 17 12 9 7 7 2 2 2 2 4 3 0 2 16 10 5 3 3 3 4 8 10 12 12 10 10 10 8 7 6
28 26 28 35 38 30 25 25 31 39 52 22 8 6 4 4 4 5 6 3 4 6 16 19 7 7 6 7 5 3 3 3 8 2 3 2 13 13 6 3 2 4 7 6 8 10 11 11 12 11 9 6 7 7
22 24 31 27 23 24 36 44 50 28 10 6 5 4 3 3 4 0 5 5 11 22 28 24 9 6 6 4 4 4 2 4 3 2 2 3 12 6 3 2 7 6 4 9 9 10 9 9 8 7 7 7 8 8
23 27 22 22 38 28 28 17 11 8 4 5 6 5 4 3 14 23 26 27 30 33 26 19 10 7 3 3 2 4 3 3 3 3 2 11 5 6 5 3 6 6 7 7 6 6 5 5 5 6 7 7 8 8
26 25 22 28 24 16 16 20 18 10 6 6 8 7 14 21 18 25 24 25 29 28 13 6 4 4 2 5 3 4 6 2 3 5 12 8 6 4 4 4 7 8 6 4 4 4 4 4 4 5 7 7 8 8
29 25 21 18 13 14 17 23 11 8 7 6 7 23 22 17 18 21 19 16 24 7 2 5 4 2 6 3 3 3 2 3 16 13 7 4 4 5 6 5 8 8 4 2 1 4 5 6 5 6 7 7 8 9
26 20 22 25 26 30 31 19 10 10 11 15 9 18 24 23 23 21 21 16 13 5 4 3 4 3 3 3 3 4 14 14 12 11 10 8 7 8 7 9 9 7 5 4 5 4 3 7 6 3 6 5 9 10
19 15 12 8 7 13 9 12 11 7 11 17 21 23 23 20 20 20 20 17 13 9 6 4 5 3 3 6 18 18 16 15 14 12 12 9 7 8 8 8 7 7 6 6 6 6 4 7 5 5 7 7 8 9
17 16 12 9 9 9 8 8 9 9 5 12 22 21 17 16 16 17 16 14 13 7 8 4 4 13 18 15 14 17 16 13 14 13 10 8 6 7 7 7 6 4 3 3 4 7 6 6 8 10 13 9 9 11
17 18 14 11 28 16 9 6 7 9 11 10 21 20 16 16 17 15 15 11 12 6 7 13 19 18 17 17 15 13 11 11 11 11 10 9 7 4 2 6 8 7 7 7 5 3 5 11 10 8 14 15 12 11
18 15 20 17 10 8 9 10 7 9 8 15 14 11 8 9 12 13 12 13 7 11 14 18 16 14 14 14 13 11 11 10 10 8 4 2 1 2 2 4 8 11 13 14 13 11 6 4 7 12 12 14 15 15
15 15 13 12 9 8 4 8 5 5 3 5 9 4 5 5 6 7 4 10 13 11 11 12 11 11 11 10 8 7 5 5 5 5 3 2 3 5 7 9 10 13 15 18 17 17 16 8 6 10 14 14 17 16
11 8 8 7 9 5 4 4 5 4 6 5 3 4 4 4 3 1 2 4 14 9 9 10 9 9 9 9 10 10 9 7 5 2 2 5 7 8 10 12 14 17 17 15 14 15 16 15 7 9 12 15 17 18
5 8 6 7 5 4 4 4 5 5 3 4 3 3 3 3 2 2 2 9 14 15 11 9 9 7 11 14 11 9 6 2 3 5 9 12 11 10 9 8 9 8 6 9 11 14 15 14 9 7 10 13 16 17
6 7 4 3 3 4 3 3 3 3 4 3 3 6 3 3 2 2 1 19 19 16 14 12 10 13 14 12 12 10 8 5 3 3 3 7 8 9 12 10 10 7 6 5 7 11 13 10 11 9 7 10 13 15
4 4 6 5 7 9 7 9 13 8 3 2 3 3 2 3 2 2 13 15 16 13 15 13 12 12 11 8 6 6 4 3 2 3 4 6 8 10 12 8 9 10 11 9 7 10 10 11 8 8 11 13 13 14
5 4 4 11 9 9 5 5 3 2 2 6 7 2 5 6 2 6 17 16 11 11 12 13 11 9 7 7 6 4 3 4 4 2 5 5 7 9 10 9 9 7 8 8 7 7 8 8 9 10 10 13 13 13
5 8 11 10 6 4 3 2 3 3 4 8 4 2 3 7 14 19 17 14 11 9 10 10 11 10 9 8 5 8 9 9 10 9 8 5 6 10 10 10 10 10 8 7 7 8 8 7 6 7 9 11 14 14
4 4 5 3 2 2 7 5 9 11 14 11 12 17 18 13 10 9 8 8 8 11 12 11 11 12 13 16 18 18 15 12 10 10 11 9 10 9 9 9 10 10 9 8 8 7 6 4 5 6 7 9 9 8
8 4 4 4 4 8 7 10 8 6 7 10 11 11 9 9 9 7 7 7 8 9 9 12 14 14 13 10 9 7 4 4 7 8 10 11 10 8 7 8 10 10 8 7 7 7 7 7 7 6 7 5 6 8
3 3 4 3 4 6 8 4 4 4 3 3 3 4 3 2 2 4 6 7 7 7 6 5 5 5 5 2 2 4 5 7 7 5 5 5 6 6 7 8 8 7 6 7 7 7 7 7 7 7 8 8 8 8
8 8 7 6 5 4 4 3 3 3 3 2 2 3 3 3 2 4 5 6 7 5 4 2 1 0 2 3 2 1 0 1 1 1 2 2 3 3 3 3 3 4 5 6 7 8 9 9 9 10 11 11 11 11
Wind_Direction
239 234 219 216 215 212 209 211 213 215 216 216 215 221 217 209 217 194 197 268 219 138 90 135 138 126 123 131 139 159 91 333 31 78 113 193 123 210 132 160 180 140 137 188 161 211 279 130 93 128 178 63 70 85
225 217 208 207 210 207 206 208 211 213 216 215 211 212 210 213 210 199 210 240 199 143 116 103 116 121 132 137 139 161 142 153 165 98 107 112 71 79 166 221 89 146 171 175 167 217 175 132 129 134 129 78 89 108
217 210 199 194 196 202 206 209 211 214 213 216 212 213 213 213 208 200 202 197 175 124 93 108 80 106 129 144 156 132 168 150 120 104 105 90 124 120 156 202 79 112 120 130 76 122 161 146 148 170 168 139 93 128
211 200 203 200 201 203 206 209 213 212 214 213 210 214 212 206 193 181 199 196 188 125 96 43 92 105 126 147 168 179 156 138 130 122 78 105 133 90 182 162 120 187 115 150 177 328 101 79 89 171 166 167 162 119
203 199 211 204 202 204 206 207 208 209 210 213 210 221 202 193 180 188 206 215 189 193 130 126 89 89 103 119 122 129 149 142 117 89 76 155 109 83 36 65 39 157 186 139 207 163 126 113 108 92 156 154 157 162
179 186 198 204 204 201 203 203 203 203 206 214 213 202 193 178 172 181 181 207 174 139 107 88 76 71 96 110 117 120 141 129 94 93 75 86 110 118 90 146 237 217 92 158 161 161 146 144 80 115 129 138 136 139
168 196 202 196 200 199 203 203 201 210 209 208 201 195 175 168 178 197 196 171 150 148 101 109 90 130 107 114 103 90 94 85 80 82 96 125 88 85 86 165 156 121 115 121 137 145 108 109 107 139 149 147 156 158
146 165 172 176 171 182 190 187 193 196 191 191 189 163 159 173 174 174 161 156 141 138 85 96 100 115 108 119 82 74 71 66 55 77 90 90 100 90 201 249 272 133 122 105 118 120 128 157 147 151 160 166 167 161
124 155 159 154 158 157 159 169 173 174 167 145 144 152 140 143 135 142 145 126 136 120 111 122 138 166 144 90 79 67 64 62 68 81 154 131 138 212 224 125 114 121 123 118 121 114 129 143 152 160 162 174 182 166
112 141 148 139 144 145 151 138 148 150 149 141 135 141 112 123 128 130 118 135 77 59 81 93 121 136 131 99 91 94 69 140 96 242 116 82 255 260 120 121 116 119 126 152 168 144 170 164 166 166 173 184 211 217
106 136 141 136 136 134 142 135 142 147 143 142 111 90 121 120 120 70 62 68 101 62 92 88 134 122 122 104 128 78 162 139 113 246 119 165 252 99 109 100 102 122 279 216 199 190 174 163 176 174 191 213 215 223
111 112 141 141 137 132 131 141 137 136 136 120 119 108 86 98 114 119 143 152 130 157 119 127 117 105 105 107 93 97 98 41 135 141 74 352 168 121 104 91 66 89 178 183 172 178 174 163 178 187 202 205 219 234
107 101 97 103 112 124 134 136 132 121 118 107 91 93 151 176 96 132 153 104 111 136 134 142 119 110 100 91 105 112 107 189 114 65 168 91 92 97 106 110 129 161 174 187 173 170 168 169 177 196 209 223 234 247
106 110 115 102 100 115 113 119 125 102 55 57 81 79 88 23 41 317 123 119 117 125 126 120 93 102 107 98 145 112 127 117 106 128 129 84 103 87 56 116 160 139 152 145 152 158 166 171 183 200 212 232 247 249
110 115 114 114 127 112 120 122 136 129 67 68 62 60 46 107 73 84 98 105 118 124 117 105 83 87 82 98 87 107 125 175 177 126 99 98 114 132 125 106 134 118 123 131 142 160 175 191 209 218 224 232 226 212
124 135 128 131 141 122 124 124 110 101 58 62 50 91 95 88 78 88 102 112 131 124 117 106 108 105 121 141 112 167 156 117 125 109 120 133 116 98 117 119 108 101 108 131 150 189 206 215 221 228 218 211 206 198
117 109 121 132 137 129 106 88 67 59 53 64 62 83 87 78 75 81 98 129 146 153 119 123 90 94 132 110 94 31 89 133 135 132 125 105 113 135 144 148 132 128 136 176 210 186 197 209 210 219 214 209 198 194
93 101 112 114 103 82 69 56 70 57 54 53 68 81 84 87 83 72 64 80 94 74 55 90 112 84 94 72 95 115 114 124 135 140 134 127 113 104 116 139 135 136 163 192 248 261 234 218 226 214 217 211 210 203
94 102 105 97 116 90 63 41 57 70 68 82 100 101 94 82 79 77 71 75 88 84 86 66 55 47 74 87 121 133 137 140 133 126 113 106 107 114 109 105 127 159 181 199 217 240 253 226 249 248 252 243 242 220
89 92 92 108 108 81 74 53 59 76 78 107 100 99 101 95 90 79 69 55 56 54 50 47 66 90 102 122 131 137 139 141 144 146 135 124 99 88 75 60 55 66 112 182 218 212 230 247 235 224 251 259 266 247
84 75 82 104 69 68 77 67 73 97 88 102 105 98 99 98 92 81 64 46 56 45 66 109 103 101 107 108 120 133 134 149 140 152 134 130 115 104 46 338 335 337 339 336 327 255 239 227 240 248 235 252 263 269
75 83 75 66 70 72 64 53 92 97 87 107 83 81 76 65 59 47 56 45 60 58 84 104 112 116 116 116 111 117 108 100 91 110 109 85 5 347 307 287 296 301 304 307 309 312 293 254 247 235 248 250 251 257
77 66 51 40 71 64 34 37 63 43 90 98 91 65 59 55 59 56 61 91 86 98 113 109 116 106 112 109 117 114 116 127 137 148 145 171 235 269 274 271 273 277 281 285 291 294 307 285 273 254 239 244 250 254
42 50 38 45 55 62 56 38 73 62 68 56 47 67 66 75 110 116 108 75 131 130 120 117 119 121 116 124 124 128 120 141 137 155 350 310 302 314 310 303 295 277 266 271 284 281 284 296 282 269 259 254 254 258
61 25 54 49 73 85 59 20 39 58 71 66 60 59 78 97 84 19 121 139 137 133 122 115 118 121 125 122 129 126 128 106 45 45 24 14 355 344 343 348 355 342 320 266 276 277 275 292 294 292 285 275 268 265
70 29 56 90 128 107 116 100 122 145 80 70 93 98 130 95 82 220 103 141 144 144 139 129 137 124 106 111 110 103 88 76 66 48 1 342 338 337 344 351 346 3 354 327 305 282 269 273 291 263 296 317 305 284
67 28 34 66 89 92 85 93 82 75 83 131 106 95 93 111 201 78 126 155 153 157 158 148 133 136 137 132 120 108 100 86 43 3 338 322 323 326 341 350 342 344 343 341 320 322 323 327 311 286 275 289 296 305
64 55 56 66 77 67 65 63 73 132 185 129 117 115 153 174 168 132 145 155 158 154 164 161 152 154 168 165 148 112 60 30 20 343 334 328 322 321 334 350 343 317 314 312 311 311 304 307 310 305 289 287 293 289
66 100 98 36 63 75 92 120 137 87 98 124 125 116 87 77 125 134 147 159 164 159 150 169 184 202 214 212 249 295 308 314 321 315 301 319 309 314 326 330 334 329 323 328 321 302 294 304 326 339 329 300 286 290
114 109 95 76 69 78 32 69 91 87 91 92 106 110 112 113 115 148 160 167 170 177 189 206 220 233 249 266 279 284 287 287 279 275 270 273 274 294 317 330 336 336 342 342 343 344 342 318 310 312 314 319 338 351
125 103 91 90 81 78 105 107 101 119 109 102 117 119 124 135 156 170 191 210 223 231 246 258 266 272 279 282 277 273 272 265 246 244 246 252 267 284 303 310 320 332 335 344 352 358 356 354 351 344 344 333 325 329
100 86 111 100 101 119 107 91 91 89 86 96 117 139 144 143 166 216 218 218 241 230 237 242 239 244 255 269 277 270 258 242 254 257 254 251 269 286 297 305 315 324 339 348 354 357 0 2 358 354 354 355 354 350
99 92 88 98 123 132 138 122 107 105 113 129 115 148 163 183 166 221 196 193 198 198 192 198 197 202 205 214 215 321 215 179 168 208 255 280 293 307 320 341 2 16 16 13 14 18 23 23 21 17 13 7 4 1